IRIDIUM 120

Last updated on Tue Sep 22 2026 00:03:20 GMT+0000 (Coordinated Universal Time)

1 42805U 17039C 26264.37503612 .00000059 00000+0 14076-4 0 9991 2 42805 86.3906 281.7390 0002131 90.9287 269.2153 14.34217785484966
UTC large
Height (km)
Speed (km/s)
/
Latitude / Longitude
Inclination (degrees)
Orbital Period (minutes)
Azimuth
Elevation
Range (km)
Doppler Factor

Next 0 passes for location: London (51.5072 / 0.1276)

No passes found over London.
IRIDIUM 120